Time,TemperatureF,DewpointF,PressureIn,WindDirection,WindDirectionDegrees,WindSpeedMPH,WindSpeedGustMPH,Humidity,HourlyPrecipIn,Conditions,Clouds,dailyrainin,SoftwareType,DateUTC
2013-03-28 00:02:00,46.0,41.0,30.29,SSW,212,0.0,0.0,82,0.00,,,0.00,,2013-03-28 04:02:00,
2013-03-28 00:12:00,46.0,41.0,30.29,SSW,212,0.0,0.0,82,0.00,,,0.00,,2013-03-28 04:12:00,
2013-03-28 00:23:00,46.0,42.0,30.29,SSW,212,0.0,0.0,85,0.00,,,0.00,,2013-03-28 04:23:00,
2013-03-28 00:32:00,45.0,41.0,30.29,SSW,212,0.0,0.0,85,0.00,,,0.00,,2013-03-28 04:32:00,
2013-03-28 00:42:00,45.0,41.0,30.29,SSW,212,0.0,0.0,85,0.00,,,0.00,,2013-03-28 04:42:00,
2013-03-28 00:52:00,45.0,41.0,30.29,SSW,212,0.0,0.0,86,0.00,,,0.00,,2013-03-28 04:52:00,
2013-03-28 01:02:00,45.0,41.0,30.29,West,263,0.0,0.0,86,0.00,,,0.00,,2013-03-28 05:02:00,
2013-03-28 01:12:00,45.0,41.0,30.29,West,263,0.0,0.0,86,0.00,,,0.00,,2013-03-28 05:12:00,
2013-03-28 01:22:00,45.0,41.0,30.28,West,263,1.0,3.0,86,0.00,,,0.00,,2013-03-28 05:22:00,
2013-03-28 01:32:00,45.0,40.0,30.28,SW,232,0.0,0.0,84,0.00,,,0.00,,2013-03-28 05:32:00,
2013-03-28 01:42:00,45.0,40.0,30.28,SW,232,0.0,0.0,84,0.00,,,0.00,,2013-03-28 05:42:00,
2013-03-28 01:52:00,44.0,39.0,30.29,SW,232,0.0,0.0,84,0.00,,,0.00,,2013-03-28 05:52:00,
2013-03-28 02:02:00,44.0,39.0,30.28,SW,232,0.0,0.0,84,0.00,,,0.00,,2013-03-28 06:02:00,
2013-03-28 02:12:00,44.0,39.0,30.28,SW,232,0.0,0.0,84,0.00,,,0.00,,2013-03-28 06:12:00,
2013-03-28 02:22:00,44.0,39.0,30.28,SW,232,0.0,0.0,84,0.00,,,0.00,,2013-03-28 06:22:00,
2013-03-28 02:32:00,44.0,39.0,30.28,SW,232,0.0,0.0,84,0.00,,,0.00,,2013-03-28 06:32:00,
2013-03-28 02:42:00,44.0,39.0,30.28,SW,232,0.0,0.0,84,0.00,,,0.00,,2013-03-28 06:42:00,
2013-03-28 02:52:00,44.0,40.0,30.28,SW,232,0.0,0.0,85,0.00,,,0.00,,2013-03-28 06:52:00,
2013-03-28 03:02:00,43.0,39.0,30.28,SW,232,0.0,0.0,86,0.00,,,0.00,,2013-03-28 07:02:00,
2013-03-28 03:12:00,43.0,39.0,30.28,SW,232,0.0,0.0,86,0.00,,,0.00,,2013-03-28 07:12:00,
2013-03-28 03:22:00,43.0,39.0,30.27,SW,232,0.0,0.0,87,0.00,,,0.00,,2013-03-28 07:22:00,
2013-03-28 03:32:00,42.0,39.0,30.26,SW,232,0.0,0.0,88,0.00,,,0.00,,2013-03-28 07:32:00,
2013-03-28 03:42:00,42.0,39.0,30.26,SW,232,0.0,0.0,88,0.00,,,0.00,,2013-03-28 07:42:00,
2013-03-28 03:52:00,42.0,39.0,30.26,SW,232,0.0,0.0,88,0.00,,,0.00,,2013-03-28 07:52:00,
2013-03-28 04:02:00,42.0,39.0,30.27,SW,232,0.0,0.0,88,0.00,,,0.00,,2013-03-28 08:02:00,
2013-03-28 04:12:00,42.0,39.0,30.27,SW,232,0.0,0.0,88,0.00,,,0.00,,2013-03-28 08:12:00,
2013-03-28 04:21:00,42.0,39.0,30.26,SW,232,0.0,0.0,89,0.00,,,0.00,,2013-03-28 08:21:00,
2013-03-28 04:32:00,41.0,38.0,30.26,SW,232,0.0,0.0,89,0.00,,,0.00,,2013-03-28 08:32:00,
2013-03-28 04:42:00,41.0,38.0,30.26,SW,232,0.0,0.0,89,0.00,,,0.00,,2013-03-28 08:42:00,
2013-03-28 04:52:00,41.0,38.0,30.26,SW,232,0.0,0.0,90,0.00,,,0.00,,2013-03-28 08:52:00,
2013-03-28 05:02:00,41.0,39.0,30.26,SW,232,0.0,0.0,91,0.00,,,0.00,,2013-03-28 09:02:00,
2013-03-28 05:12:00,41.0,39.0,30.26,SW,232,0.0,0.0,91,0.00,,,0.00,,2013-03-28 09:12:00,
2013-03-28 05:22:00,41.0,39.0,30.26,SW,232,0.0,0.0,91,0.00,,,0.00,,2013-03-28 09:22:00,
2013-03-28 05:32:00,41.0,39.0,30.26,SW,232,0.0,0.0,92,0.00,,,0.00,,2013-03-28 09:32:00,
2013-03-28 05:42:00,41.0,39.0,30.26,SW,232,0.0,0.0,91,0.00,,,0.00,,2013-03-28 09:42:00,
2013-03-28 05:52:00,41.0,39.0,30.26,SW,232,0.0,0.0,91,0.00,,,0.00,,2013-03-28 09:52:00,
2013-03-28 06:03:00,41.0,39.0,30.26,SW,232,0.0,0.0,91,0.00,,,0.00,,2013-03-28 10:03:00,
2013-03-28 06:12:00,41.0,39.0,30.26,SW,232,0.0,0.0,91,0.00,,,0.00,,2013-03-28 10:12:00,
2013-03-28 06:22:00,41.0,39.0,30.27,SW,232,0.0,0.0,91,0.00,,,0.00,,2013-03-28 10:22:00,
2013-03-28 06:33:00,41.0,39.0,30.27,SW,232,0.0,0.0,91,0.00,,,0.00,,2013-03-28 10:33:00,
2013-03-28 06:42:00,41.0,39.0,30.27,SW,232,0.0,0.0,91,0.00,,,0.00,,2013-03-28 10:42:00,
2013-03-28 06:53:00,40.0,38.0,30.28,SW,232,0.0,0.0,91,0.00,,,0.00,,2013-03-28 10:53:00,
2013-03-28 07:02:00,40.0,38.0,30.28,SW,232,0.0,0.0,91,0.00,,,0.00,,2013-03-28 11:02:00,
2013-03-28 07:12:00,40.0,38.0,30.28,SW,232,0.0,0.0,91,0.00,,,0.00,,2013-03-28 11:12:00,
2013-03-28 07:23:00,40.0,38.0,30.27,SW,232,0.0,0.0,92,0.00,,,0.00,,2013-03-28 11:23:00,
2013-03-28 07:32:00,40.0,38.0,30.27,SW,232,0.0,0.0,92,0.00,,,0.00,,2013-03-28 11:32:00,
2013-03-28 07:43:00,40.0,38.0,30.27,SW,232,0.0,0.0,92,0.00,,,0.00,,2013-03-28 11:43:00,
2013-03-28 07:52:00,39.0,37.0,30.28,SW,232,0.0,0.0,92,0.00,,,0.00,,2013-03-28 11:52:00,
2013-03-28 08:02:00,39.0,37.0,30.28,SW,232,0.0,0.0,93,0.00,,,0.00,,2013-03-28 12:02:00,
2013-03-28 08:12:00,39.0,37.0,30.28,SW,232,0.0,0.0,93,0.00,,,0.00,,2013-03-28 12:12:00,
2013-03-28 08:22:00,39.0,38.0,30.29,SW,232,0.0,0.0,95,0.00,,,0.00,,2013-03-28 12:22:00,
2013-03-28 08:32:00,41.0,40.0,30.29,SW,232,0.0,0.0,96,0.00,,,0.00,,2013-03-28 12:32:00,
2013-03-28 08:42:00,41.0,40.0,30.29,SW,232,0.0,0.0,96,0.00,,,0.00,,2013-03-28 12:42:00,
2013-03-28 08:52:00,43.0,42.0,30.29,SW,232,0.0,0.0,96,0.00,,,0.00,,2013-03-28 12:52:00,
2013-03-28 09:02:00,45.0,43.0,30.29,NW,312,1.0,0.0,91,0.00,,,0.00,,2013-03-28 13:02:00,
2013-03-28 09:12:00,45.0,43.0,30.29,NW,312,1.0,0.0,91,0.00,,,0.00,,2013-03-28 13:12:00,
2013-03-28 09:22:00,51.0,44.0,30.29,WNW,285,2.0,2.0,77,0.00,,,0.00,,2013-03-28 13:22:00,
2013-03-28 09:32:00,53.0,42.0,30.30,WSW,245,0.0,4.0,67,0.00,,,0.00,,2013-03-28 13:32:00,
2013-03-28 09:42:00,53.0,42.0,30.30,WSW,245,0.0,4.0,67,0.00,,,0.00,,2013-03-28 13:42:00,
2013-03-28 09:52:00,56.0,41.0,30.31,West,278,2.0,4.0,57,0.00,,,0.00,,2013-03-28 13:52:00,
2013-03-28 10:02:00,59.0,39.0,30.31,NNW,328,0.0,5.0,48,0.00,,,0.00,,2013-03-28 14:02:00,
2013-03-28 10:12:00,59.0,39.0,30.31,NNW,328,0.0,5.0,48,0.00,,,0.00,,2013-03-28 14:12:00,
2013-03-28 10:22:00,60.0,38.0,30.31,NW,323,5.0,5.0,44,0.00,,,0.00,,2013-03-28 14:22:00,
2013-03-28 10:32:00,60.0,37.0,30.31,West,263,0.0,0.0,43,0.00,,,0.00,,2013-03-28 14:32:00,
2013-03-28 10:42:00,60.0,37.0,30.31,West,263,0.0,0.0,43,0.00,,,0.00,,2013-03-28 14:42:00,
2013-03-28 10:52:00,59.0,36.0,30.32,North,359,0.0,0.0,42,0.00,,,0.00,,2013-03-28 14:52:00,
2013-03-28 11:02:00,59.0,35.0,30.32,NNW,343,0.0,0.0,41,0.00,,,0.00,,2013-03-28 15:02:00,
2013-03-28 11:12:00,59.0,35.0,30.32,NNW,343,0.0,0.0,41,0.00,,,0.00,,2013-03-28 15:12:00,
2013-03-28 11:22:00,60.0,36.0,30.32,NNW,343,0.0,0.0,41,0.00,,,0.00,,2013-03-28 15:22:00,
2013-03-28 11:33:00,60.0,35.0,30.32,NNW,343,0.0,0.0,39,0.00,,,0.00,,2013-03-28 15:33:00,
2013-03-28 11:43:00,60.0,35.0,30.32,NNW,343,0.0,0.0,39,0.00,,,0.00,,2013-03-28 15:43:00,
2013-03-28 11:53:00,61.0,34.0,30.31,North,359,7.0,7.0,36,0.00,,,0.00,,2013-03-28 15:53:00,
2013-03-28 12:02:00,61.0,32.0,30.31,North,359,1.0,0.0,34,0.00,,,0.00,,2013-03-28 16:02:00,
2013-03-28 12:12:00,61.0,32.0,30.31,North,359,1.0,0.0,34,0.00,,,0.00,,2013-03-28 16:12:00,
2013-03-28 12:23:00,61.0,33.0,30.31,NW,308,3.0,3.0,35,0.00,,,0.00,,2013-03-28 16:23:00,
2013-03-28 12:32:00,62.0,33.0,30.31,NW,308,0.0,0.0,34,0.00,,,0.00,,2013-03-28 16:32:00,
2013-03-28 12:42:00,62.0,33.0,30.31,NW,308,0.0,0.0,34,0.00,,,0.00,,2013-03-28 16:42:00,
2013-03-28 12:52:00,63.0,34.0,30.30,NW,315,1.0,0.0,34,0.00,,,0.00,,2013-03-28 16:52:00,
2013-03-28 13:02:00,63.0,33.0,30.30,North,3,1.0,2.0,32,0.00,,,0.00,,2013-03-28 17:02:00,
2013-03-28 13:12:00,63.0,33.0,30.30,North,3,1.0,2.0,32,0.00,,,0.00,,2013-03-28 17:12:00,
2013-03-28 13:22:00,64.0,34.0,30.29,NNW,345,4.0,4.0,33,0.00,,,0.00,,2013-03-28 17:22:00,
2013-03-28 13:32:00,65.0,34.0,30.28,NW,308,5.0,7.0,31,0.00,,,0.00,,2013-03-28 17:32:00,
2013-03-28 13:42:00,65.0,34.0,30.28,NW,308,5.0,7.0,31,0.00,,,0.00,,2013-03-28 17:42:00,
2013-03-28 13:52:00,66.0,34.0,30.28,West,262,0.0,0.0,30,0.00,,,0.00,,2013-03-28 17:52:00,
2013-03-28 14:02:00,66.0,32.0,30.27,West,262,0.0,0.0,28,0.00,,,0.00,,2013-03-28 18:02:00,
2013-03-28 14:12:00,66.0,32.0,30.27,West,262,0.0,0.0,28,0.00,,,0.00,,2013-03-28 18:12:00,
2013-03-28 14:22:00,67.0,33.0,30.27,ENE,73,0.0,0.0,28,0.00,,,0.00,,2013-03-28 18:22:00,
2013-03-28 14:32:00,67.0,33.0,30.26,NNW,338,3.0,4.0,28,0.00,,,0.00,,2013-03-28 18:32:00,
2013-03-28 14:42:00,67.0,33.0,30.26,NNW,338,3.0,4.0,28,0.00,,,0.00,,2013-03-28 18:42:00,
2013-03-28 14:52:00,68.0,33.0,30.25,North,359,7.0,7.0,27,0.00,,,0.00,,2013-03-28 18:52:00,
2013-03-28 15:02:00,68.0,33.0,30.24,ENE,60,1.0,5.0,27,0.00,,,0.00,,2013-03-28 19:02:00,
2013-03-28 15:12:00,68.0,33.0,30.24,ENE,60,1.0,5.0,27,0.00,,,0.00,,2013-03-28 19:12:00,
2013-03-28 15:22:00,68.0,32.0,30.24,North,359,5.0,5.0,26,0.00,,,0.00,,2013-03-28 19:22:00,
2013-03-28 15:33:00,69.0,34.0,30.23,West,259,4.0,0.0,27,0.00,,,0.00,,2013-03-28 19:33:00,
2013-03-28 15:42:00,69.0,34.0,30.23,West,259,4.0,0.0,27,0.00,,,0.00,,2013-03-28 19:42:00,
2013-03-28 15:52:00,70.0,29.0,30.22,North,359,2.0,0.0,22,0.00,,,0.00,,2013-03-28 19:52:00,
2013-03-28 16:03:00,69.0,32.0,30.22,North,1,2.0,3.0,25,0.00,,,0.00,,2013-03-28 20:03:00,
2013-03-28 16:12:00,70.0,30.0,30.21,NW,309,4.0,4.0,23,0.00,,,0.00,,2013-03-28 20:12:00,
2013-03-28 16:22:00,70.0,30.0,30.21,NW,309,4.0,4.0,23,0.00,,,0.00,,2013-03-28 20:22:00,
2013-03-28 16:32:00,70.0,29.0,30.20,NNW,346,2.0,0.0,22,0.00,,,0.00,,2013-03-28 20:32:00,
2013-03-28 16:42:00,70.0,29.0,30.20,NNW,346,2.0,0.0,22,0.00,,,0.00,,2013-03-28 20:42:00,
2013-03-28 16:53:00,70.0,32.0,30.20,NNW,346,0.0,0.0,24,0.00,,,0.00,,2013-03-28 20:53:00,
2013-03-28 17:02:00,70.0,30.0,30.20,NNE,14,5.0,7.0,23,0.00,,,0.00,,2013-03-28 21:02:00,
2013-03-28 17:12:00,70.0,30.0,30.20,NNE,14,5.0,7.0,23,0.00,,,0.00,,2013-03-28 21:12:00,
2013-03-28 17:22:00,70.0,30.0,30.20,North,353,3.0,0.0,23,0.00,,,0.00,,2013-03-28 21:22:00,
2013-03-28 17:32:00,70.0,30.0,30.20,NNE,13,4.0,0.0,23,0.00,,,0.00,,2013-03-28 21:32:00,
2013-03-28 17:43:00,70.0,30.0,30.20,NNE,13,4.0,0.0,23,0.00,,,0.00,,2013-03-28 21:43:00,
2013-03-28 17:53:00,70.0,29.0,30.20,North,354,4.0,4.0,22,0.00,,,0.00,,2013-03-28 21:53:00,
2013-03-28 18:03:00,69.0,31.0,30.20,North,10,0.0,0.0,24,0.00,,,0.00,,2013-03-28 22:03:00,
2013-03-28 18:12:00,69.0,31.0,30.20,North,10,0.0,0.0,24,0.00,,,0.00,,2013-03-28 22:12:00,
2013-03-28 18:22:00,69.0,30.0,30.21,North,359,4.0,0.0,23,0.00,,,0.00,,2013-03-28 22:22:00,
2013-03-28 18:32:00,69.0,39.0,30.21,NNE,18,5.0,5.0,33,0.00,,,0.00,,2013-03-28 22:32:00,
2013-03-28 18:42:00,69.0,39.0,30.21,NNE,18,5.0,5.0,33,0.00,,,0.00,,2013-03-28 22:42:00,
2013-03-28 18:52:00,67.0,40.0,30.22,NE,39,6.0,6.0,37,0.00,,,0.00,,2013-03-28 22:52:00,
2013-03-28 19:03:00,66.0,40.0,30.22,North,359,0.0,0.0,39,0.00,,,0.00,,2013-03-28 23:03:00,
2013-03-28 19:12:00,66.0,40.0,30.22,North,359,0.0,0.0,39,0.00,,,0.00,,2013-03-28 23:12:00,
2013-03-28 19:22:00,65.0,41.0,30.23,ENE,72,4.0,0.0,42,0.00,,,0.00,,2013-03-28 23:22:00,
2013-03-28 19:32:00,64.0,41.0,30.23,North,359,3.0,3.0,43,0.00,,,0.00,,2013-03-28 23:32:00,
2013-03-28 19:42:00,64.0,41.0,30.23,North,359,3.0,3.0,43,0.00,,,0.00,,2013-03-28 23:42:00,
2013-03-28 19:53:00,64.0,42.0,30.24,ENE,59,0.0,0.0,44,0.00,,,0.00,,2013-03-28 23:53:00,
2013-03-28 20:02:00,62.0,42.0,30.24,NE,51,0.0,1.0,47,0.00,,,0.00,,2013-03-29 00:02:00,
2013-03-28 20:12:00,62.0,42.0,30.24,NE,51,0.0,1.0,47,0.00,,,0.00,,2013-03-29 00:12:00,
2013-03-28 20:22:00,62.0,42.0,30.25,NNE,32,0.0,1.0,48,0.00,,,0.00,,2013-03-29 00:22:00,
2013-03-28 20:32:00,61.0,42.0,30.25,NE,34,0.0,0.0,50,0.00,,,0.00,,2013-03-29 00:32:00,
2013-03-28 20:42:00,61.0,42.0,30.25,NE,34,0.0,0.0,50,0.00,,,0.00,,2013-03-29 00:42:00,
2013-03-28 20:52:00,60.0,43.0,30.26,NE,34,0.0,0.0,53,0.00,,,0.00,,2013-03-29 00:52:00,
2013-03-28 21:02:00,59.0,42.0,30.27,ENE,73,0.0,0.0,54,0.00,,,0.00,,2013-03-29 01:02:00,
2013-03-28 21:12:00,59.0,42.0,30.27,ENE,73,0.0,0.0,54,0.00,,,0.00,,2013-03-29 01:12:00,
2013-03-28 21:22:00,59.0,43.0,30.27,ENE,73,0.0,0.0,56,0.00,,,0.00,,2013-03-29 01:22:00,
2013-03-28 21:32:00,58.0,43.0,30.27,ENE,73,0.0,0.0,57,0.00,,,0.00,,2013-03-29 01:32:00,
2013-03-28 21:42:00,58.0,43.0,30.27,ENE,73,0.0,0.0,57,0.00,,,0.00,,2013-03-29 01:42:00,
2013-03-28 21:52:00,58.0,43.0,30.28,ENE,75,0.0,0.0,58,0.00,,,0.00,,2013-03-29 01:52:00,
2013-03-28 22:02:00,57.0,43.0,30.28,ENE,75,0.0,0.0,59,0.00,,,0.00,,2013-03-29 02:02:00,
2013-03-28 22:12:00,57.0,43.0,30.28,ENE,75,0.0,0.0,59,0.00,,,0.00,,2013-03-29 02:12:00,
2013-03-28 22:22:00,57.0,43.0,30.28,ENE,75,0.0,0.0,60,0.00,,,0.00,,2013-03-29 02:22:00,
2013-03-28 22:32:00,56.0,44.0,30.29,ENE,75,0.0,0.0,63,0.00,,,0.00,,2013-03-29 02:32:00,
2013-03-28 22:42:00,56.0,44.0,30.29,ENE,75,0.0,0.0,63,0.00,,,0.00,,2013-03-29 02:42:00,
2013-03-28 22:53:00,55.0,43.0,30.29,ENE,75,0.0,0.0,65,0.00,,,0.00,,2013-03-29 02:53:00,
2013-03-28 23:02:00,54.0,43.0,30.29,ENE,75,0.0,0.0,66,0.00,,,0.00,,2013-03-29 03:02:00,
2013-03-28 23:12:00,54.0,43.0,30.29,ENE,75,0.0,0.0,66,0.00,,,0.00,,2013-03-29 03:12:00,
2013-03-28 23:22:00,53.0,43.0,30.29,ENE,75,0.0,0.0,70,0.00,,,0.00,,2013-03-29 03:22:00,
2013-03-28 23:32:00,52.0,43.0,30.30,ENE,75,0.0,0.0,72,0.00,,,0.00,,2013-03-29 03:32:00,
2013-03-28 23:42:00,52.0,43.0,30.30,ENE,75,0.0,0.0,72,0.00,,,0.00,,2013-03-29 03:42:00,
2013-03-28 23:53:00,52.0,44.0,30.30,ENE,75,0.0,0.0,74,0.00,,,0.00,,2013-03-29 03:53:00,